RH
34 30 33 30 24 15 14 12 8 10 15 13 12 13 13 11 13 22 34 31 33 37 47 72 87 87 86 85 86 86 83 81 79 78 74 72 70 69 71 76 76 74 73 74 71 73 72 70 74
27 38 31 24 20 14 11 8 9 9 10 10 12 12 14 15 10 11 28 35 34 34 45 61 89 88 88 86 86 87 84 82 80 78 76 75 72 71 77 80 76 75 75 72 72 73 75 72 77
27 43 33 20 17 13 10 6 7 8 8 8 10 10 11 12 10 15 34 36 33 35 44 66 89 88 88 88 88 85 84 82 81 78 78 78 75 76 76 75 77 77 79 77 72 74 75 74 79
32 35 25 28 19 12 9 7 6 8 7 7 8 12 8 12 34 41 38 37 35 35 49 84 89 87 88 88 87 86 85 82 80 80 80 79 78 78 76 78 78 79 80 77 74 74 75 78 80
30 30 26 21 17 11 7 6 9 10 9 8 8 13 10 25 32 33 39 40 38 38 55 80 89 88 88 88 88 86 85 82 81 81 81 80 79 79 79 80 79 80 79 77 76 75 75 79 81
27 26 24 19 12 8 6 7 10 12 9 8 11 10 9 7 34 41 40 39 38 42 70 76 87 88 88 88 87 86 84 83 81 83 82 82 81 83 82 81 79 78 78 79 81 79 78 79 83
24 18 23 19 15 11 8 7 12 14 14 10 7 12 9 19 32 40 50 38 38 48 73 77 74 80 90 88 88 85 84 84 83 82 83 84 84 84 83 84 82 78 81 84 84 84 82 82 86
31 27 19 13 10 10 22 26 21 14 16 9 8 14 13 25 36 48 55 50 39 57 77 78 70 74 72 74 90 86 88 88 88 87 88 90 88 86 86 87 83 80 86 84 86 85 84 86 88
25 28 18 14 14 19 23 26 24 23 30 23 13 14 30 30 31 51 64 68 72 73 81 81 75 70 67 64 77 91 92 94 91 91 93 86 61 61 69 76 91 88 84 86 86 84 86 90 88
21 22 18 23 22 22 22 21 21 23 26 32 23 19 31 30 32 49 68 85 74 76 81 82 74 74 67 64 71 67 71 76 68 72 71 59 54 53 46 79 90 88 86 85 85 84 83 75 58
14 17 11 11 14 15 18 19 15 17 26 27 35 38 33 33 37 45 66 70 80 81 82 77 75 73 70 65 70 65 70 61 65 68 62 54 50 53 56 69 65 67 72 65 66 59 49 57 54
18 11 10 15 15 18 22 18 18 16 16 14 16 19 23 27 30 39 55 66 77 80 80 93 78 75 75 77 74 72 70 60 60 66 62 55 59 58 52 51 50 56 56 64 58 47 39 45 52
19 16 15 17 23 23 20 23 23 21 26 30 27 21 21 24 38 48 50 60 65 79 82 86 94 84 77 78 80 79 76 70 61 65 64 56 59 60 54 48 46 44 44 53 56 49 40 38 38
16 19 20 18 18 19 23 30 26 40 45 38 23 20 22 44 49 50 54 60 65 70 83 85 88 91 83 83 72 72 77 72 70 68 66 60 59 59 55 51 49 44 43 43 41 42 42 41 39
19 20 16 14 15 18 23 28 64 51 50 45 38 37 43 46 48 52 56 61 65 70 78 82 85 85 94 84 77 75 78 77 78 73 63 60 58 59 56 54 50 49 43 42 42 41 43 43 41
17 19 23 16 17 16 24 37 56 45 55 63 48 39 41 49 51 52 58 63 65 71 78 75 78 85 91 96 83 77 76 83 83 75 65 60 58 57 56 53 51 47 46 46 45 46 46 45 46
22 37 30 24 17 21 26 36 45 40 50 61 68 50 46 52 53 53 60 63 67 69 75 81 79 87 92 94 93 77 76 83 87 77 69 64 59 55 54 53 51 46 48 49 48 49 48 51 53
55 51 36 32 21 22 26 55 48 45 51 56 68 57 54 56 56 54 62 63 68 70 73 79 79 83 90 95 96 87 86 84 88 80 74 66 62 57 55 53 50 50 52 52 52 51 49 50 53
43 50 50 27 21 28 25 30 59 51 54 60 65 58 58 61 54 55 60 65 72 72 74 80 86 82 90 96 98 96 93 92 90 84 72 68 65 58 55 53 53 54 54 53 51 52 54 55 51
36 44 35 28 26 36 38 72 62 54 72 69 74 70 66 63 59 58 74 69 81 79 79 85 85 87 88 96 95 96 90 88 83 83 73 68 66 60 54 56 56 55 56 55 54 56 59 58 56
36 45 44 52 40 31 34 44 57 72 62 57 58 65 62 74 72 64 84 82 86 86 90 82 89 90 91 91 96 96 89 92 92 91 84 78 68 64 58 57 58 57 55 60 60 61 63 67 60
42 27 42 52 61 83 55 86 54 58 61 62 62 66 68 74 68 67 78 90 91 92 86 88 86 91 89 93 94 95 96 96 89 90 82 76 67 65 61 60 60 59 58 61 63 60 62 64 68
37 35 37 56 68 66 67 68 67 46 66 71 74 65 70 67 74 80 79 91 90 93 94 90 87 88 92 97 95 97 97 90 90 85 78 76 69 66 62 61 62 61 61 62 63 64 62 61 64
38 37 41 52 71 90 47 62 82 69 79 69 66 66 68 71 71 71 67 74 90 89 91 90 91 89 92 94 93 97 97 96 93 89 81 78 72 70 67 63 62 62 63 65 64 63 63 60 62
58 60 72 77 74 64 52 64 79 65 68 63 72 72 70 72 74 76 76 83 89 92 92 93 90 92 91 95 93 96 96 96 93 90 80 80 77 74 71 65 64 63 63 64 63 66 67 66 65
64 74 72 80 71 52 42 78 80 64 52 51 59 70 64 75 72 74 75 81 88 93 92 93 93 93 92 94 95 95 94 96 96 92 81 73 72 70 68 65 62 61 61 62 62 67 67 67 69
61 72 65 79 58 67 67 65 60 39 47 52 55 58 72 74 78 75 75 84 88 92 94 95 93 92 92 94 96 96 96 95 96 96 86 75 68 66 68 66 64 61 60 61 64 66 66 64 66
56 61 78 74 69 67 54 58 60 61 58 56 63 69 73 68 76 76 77 79 89 93 94 91 91 92 92 93 95 96 98 97 94 95 98 84 70 66 68 67 63 62 61 60 62 64 63 64 65
58 57 54 77 66 64 60 60 58 61 64 73 72 68 73 76 78 81 79 79 88 90 93 92 91 92 92 93 94 96 95 96 95 94 94 97 77 63 67 64 62 60 61 60 61 62 64 63 64
68 62 59 71 61 60 72 64 68 61 69 64 67 67 69 70 78 76 79 79 81 88 89 92 92 92 92 92 93 94 96 97 97 96 94 95 98 68 64 62 61 60 61 60 61 64 62 62 64
Wind_Speed
20 12 5 4 6 9 17 18 18 16 10 9 13 10 12 17 8 5 5 5 5 16 22 22 21 20 21 22 21 20 18 18 17 18 19 18 16 15 14 16 17 16 18 17 17 18 17 17 15
14 12 4 3 9 16 15 16 18 15 18 13 8 12 14 16 16 11 4 7 8 17 21 22 21 21 20 21 21 21 20 18 19 18 18 18 16 16 17 19 19 18 18 18 17 17 15 15 14
12 5 4 4 10 20 18 17 10 13 18 20 15 14 14 13 13 6 10 5 11 17 21 17 21 21 20 20 21 21 20 19 19 19 17 17 18 16 18 17 16 16 17 16 16 15 15 14 13
6 5 5 9 21 19 16 14 12 12 15 16 13 15 12 6 8 10 8 4 10 17 20 19 21 22 21 20 21 21 21 20 19 19 19 17 18 19 17 15 14 16 16 15 15 15 15 13 13
6 4 9 15 24 22 19 16 12 13 14 13 8 20 18 7 5 4 4 4 10 15 19 20 22 22 22 21 21 21 21 20 19 19 18 18 19 20 18 15 14 16 16 15 14 16 16 14 13
5 4 10 17 23 19 17 15 9 17 19 16 9 13 15 16 12 11 7 6 10 13 16 17 20 21 21 21 21 20 20 21 19 18 19 19 19 20 19 16 15 15 15 14 14 16 17 16 13
6 9 16 22 24 23 21 17 13 16 20 22 17 14 9 11 15 11 10 9 11 14 16 15 20 19 19 20 20 21 21 20 19 18 19 19 19 20 19 16 15 16 15 15 13 18 17 16 13
6 5 12 16 17 21 14 15 17 12 20 18 13 9 10 16 17 17 5 11 12 13 13 15 19 19 18 18 18 20 18 17 16 15 18 19 18 18 17 14 15 16 13 14 18 16 18 17 14
5 7 12 18 19 15 16 13 14 21 19 16 14 7 10 15 17 14 11 9 6 10 11 14 18 18 18 18 16 14 15 15 17 16 18 17 14 16 16 13 11 13 13 17 18 19 17 14 11
6 9 10 12 10 15 17 17 19 16 20 18 18 9 12 20 16 11 13 15 13 14 14 16 16 18 18 14 18 18 16 14 15 17 20 14 16 14 13 13 11 18 17 17 17 18 14 8 7
8 8 17 16 16 18 21 22 20 21 20 20 19 22 18 19 14 13 11 12 16 15 15 15 16 18 19 15 13 9 10 11 11 18 16 14 11 11 10 8 8 10 13 7 8 9 6 5 4
9 13 15 19 19 21 22 22 23 22 23 26 25 24 20 20 16 13 15 18 17 19 18 23 16 17 18 13 12 12 12 11 11 14 16 11 8 11 11 9 10 9 8 9 6 5 7 11 6
4 12 18 20 21 20 19 18 22 21 17 23 22 21 22 17 16 15 15 16 17 18 19 20 19 15 18 17 13 13 13 12 13 14 14 12 11 11 11 11 9 9 8 11 10 10 8 8 8
16 18 18 17 17 14 18 19 20 17 21 19 22 21 16 13 15 15 17 19 19 19 19 19 19 18 17 16 18 14 13 14 13 13 13 17 12 11 11 11 10 9 8 8 8 7 8 7 7
12 19 12 16 15 16 15 16 12 15 18 17 20 16 14 15 15 15 18 19 19 17 19 19 20 19 20 20 19 15 14 13 12 13 18 18 14 14 12 10 9 9 9 12 9 9 8 7 7
12 6 17 17 12 12 13 13 12 14 15 17 18 15 14 15 15 16 18 18 18 19 18 20 17 19 20 18 16 13 15 12 12 12 14 17 15 16 12 11 9 9 8 8 8 8 8 7 7
10 17 21 17 19 10 11 17 12 15 13 14 16 16 15 15 16 17 19 18 18 18 19 21 19 19 21 16 14 18 18 12 11 13 13 16 17 16 12 11 10 11 9 8 9 8 8 8 9
21 21 16 22 16 13 17 6 8 13 14 14 16 16 16 18 19 18 20 19 19 19 18 18 17 18 20 18 11 12 15 12 10 12 12 16 13 16 12 11 13 11 10 9 9 10 9 8 9
16 18 20 19 21 11 14 16 5 9 15 16 17 17 18 19 20 17 19 19 20 20 21 20 19 17 15 14 6 11 14 13 10 11 17 16 14 16 14 11 13 11 11 11 12 10 11 8 9
18 18 20 18 19 15 15 4 4 8 12 14 16 19 20 21 21 20 20 20 19 21 22 20 19 19 13 12 10 13 15 14 13 12 17 18 16 16 13 14 13 13 10 13 12 11 9 7 8
19 16 24 20 19 11 11 12 4 5 8 14 15 16 18 20 21 22 20 20 18 20 21 20 18 18 16 16 13 12 14 12 12 12 13 14 16 16 15 16 13 14 12 11 12 12 12 10 9
17 24 20 13 11 4 2 2 7 5 10 15 17 18 19 20 20 19 19 18 19 19 18 19 18 18 14 12 13 12 11 15 14 11 13 14 18 18 16 16 15 14 11 13 12 11 10 11 10
14 25 15 10 8 8 3 7 7 7 13 17 16 18 17 19 19 19 19 16 16 17 17 18 17 15 19 15 15 10 14 12 12 13 18 17 15 17 17 16 16 14 10 14 14 13 12 9 9
22 20 6 7 5 6 8 5 8 9 13 17 16 17 17 17 18 18 18 18 16 16 17 18 18 18 19 14 16 16 11 11 15 16 14 13 13 13 17 17 15 15 13 15 14 14 13 11 9
20 18 4 3 2 7 8 6 4 8 11 14 15 16 16 15 16 17 19 18 17 19 19 17 19 19 18 16 16 16 12 20 16 18 14 16 13 13 16 18 16 14 15 15 14 14 12 11 10
9 7 5 7 8 12 8 4 4 5 8 12 12 11 15 14 15 16 18 17 17 18 19 19 19 20 20 17 19 15 13 9 11 15 14 13 13 14 18 18 17 18 16 15 14 12 11 11 10
7 7 3 7 11 7 3 3 4 8 11 13 14 15 14 15 14 16 16 16 16 16 18 18 18 17 20 19 15 15 13 14 12 8 14 14 14 13 17 19 18 17 16 16 15 11 13 12 11
5 2 2 2 8 8 8 9 4 11 14 15 15 14 14 15 14 14 14 15 15 14 15 16 15 17 18 18 16 14 13 12 12 11 6 16 15 16 17 18 17 17 17 16 16 12 14 14 11
0 1 2 3 3 6 8 3 3 4 9 13 13 13 13 13 14 12 12 12 14 14 15 15 15 17 17 16 16 16 14 14 12 11 10 3 12 16 18 18 18 18 18 18 17 15 15 15 13
3 3 2 3 1 4 4 9 2 4 8 12 11 12 12 12 11 11 11 12 13 14 14 16 14 14 15 15 15 15 14 15 12 12 11 11 1 13 17 19 18 18 17 17 17 17 15 16 15
Wind_Direction
323 314 282 241 245 236 249 243 249 243 256 256 262 270 243 253 241 245 119 164 205 157 157 166 162 161 163 164 161 158 156 151 149 148 148 151 151 152 152 150 142 131 115 104 101 98 99 101 100
312 311 237 275 249 250 249 236 251 240 237 268 267 246 253 255 251 260 166 178 194 167 159 172 163 158 161 163 162 158 155 153 152 150 152 152 151 151 146 136 133 123 116 110 104 99 99 106 101
301 266 259 230 238 245 264 268 268 243 250 256 254 240 264 248 263 345 37 168 194 170 160 162 162 159 159 155 155 155 155 156 154 152 155 148 147 153 137 127 123 119 112 111 111 116 109 112 105
297 191 231 242 246 252 262 290 295 265 262 270 258 273 245 278 354 9 341 208 189 170 153 147 161 161 157 156 157 157 156 158 161 155 156 152 147 146 128 119 114 116 114 117 120 126 116 114 107
228 257 250 241 255 262 269 272 280 300 278 275 250 251 267 109 45 6 334 216 197 172 152 157 161 162 161 160 160 160 159 160 162 156 156 148 145 136 127 125 124 124 123 124 123 124 122 115 110
245 274 251 261 270 277 276 257 256 261 263 255 224 264 264 272 34 351 307 225 206 171 147 158 164 164 162 163 162 164 162 160 164 161 157 151 143 130 131 131 133 133 129 128 132 129 122 117 108
266 262 261 275 283 285 285 299 237 261 265 257 262 251 272 66 2 334 297 233 214 156 153 170 174 165 163 165 165 164 164 162 162 166 154 145 140 132 133 133 137 137 135 131 124 126 123 116 108
288 279 267 265 278 283 25 344 320 266 275 284 284 272 260 348 344 330 271 277 214 157 166 175 179 172 172 170 164 165 163 158 153 154 140 137 132 130 134 133 136 136 137 131 113 108 112 111 101
305 258 275 294 306 325 22 349 326 335 301 282 273 291 25 349 345 359 339 236 273 176 178 187 185 177 173 172 165 161 156 143 138 136 133 141 140 144 148 123 121 125 107 107 109 103 96 90 88
290 272 296 346 347 326 322 322 318 312 308 283 255 241 9 344 335 347 17 7 320 214 198 197 193 184 175 172 165 171 164 161 158 155 154 162 150 142 146 124 119 115 110 109 113 112 119 115 129
345 280 328 317 326 319 307 302 301 297 286 281 339 333 339 325 325 350 7 356 347 329 322 212 200 193 181 175 166 172 166 173 164 162 165 158 155 145 135 142 142 129 122 117 121 127 136 133 154
303 306 318 318 314 307 300 301 291 286 286 292 297 299 312 305 313 341 345 348 349 341 341 338 221 201 194 174 173 173 170 178 169 169 167 161 147 145 145 160 162 157 152 139 144 149 160 152 143
312 332 315 305 301 299 309 293 288 284 328 322 311 300 292 292 345 343 347 343 342 341 339 333 321 249 195 185 179 172 180 182 168 167 165 159 155 152 153 164 158 163 174 152 167 187 154 151 156
332 310 297 298 302 330 300 317 290 348 337 315 299 283 301 352 343 340 346 341 341 338 333 328 320 302 234 185 183 171 177 178 166 165 165 158 159 157 158 165 170 162 156 159 167 168 162 162 157
314 313 309 313 339 312 334 296 23 353 346 346 353 353 345 336 342 349 344 338 336 337 327 329 323 324 324 192 181 170 171 166 164 163 166 163 164 156 157 169 165 149 163 160 167 163 167 160 161
334 295 330 332 327 317 327 296 18 14 360 0 341 337 342 337 344 350 345 340 338 334 332 328 324 325 319 314 186 173 168 161 161 167 166 168 163 159 162 168 158 160 155 157 154 156 159 161 153
352 323 322 319 321 325 311 301 21 15 7 6 350 344 346 344 341 351 348 343 341 336 335 328 336 329 316 304 262 169 165 161 162 168 166 170 164 168 164 163 158 160 154 152 152 161 155 157 137
322 320 312 309 319 310 301 310 23 20 15 6 358 349 352 348 348 345 352 348 344 338 339 333 341 339 325 336 221 166 156 166 163 164 167 167 165 170 166 162 158 159 156 157 160 159 154 156 136
316 313 307 321 317 294 294 302 30 20 19 9 1 352 356 350 342 353 354 352 349 343 342 343 345 342 337 315 266 182 164 165 158 160 171 170 167 169 168 159 160 163 164 158 159 156 154 149 148
327 314 329 310 320 303 285 179 104 27 27 10 1 358 354 348 348 352 355 357 353 345 342 340 346 341 331 326 315 285 165 171 168 165 173 173 166 169 169 160 167 165 164 161 165 158 151 144 145
336 353 330 312 314 252 246 239 48 43 8 9 9 358 355 350 349 349 355 353 348 347 340 338 339 332 351 332 319 296 160 162 171 177 168 172 168 172 173 164 171 169 162 165 161 160 154 160 177
319 349 319 307 321 351 181 20 39 30 357 6 359 356 352 350 348 352 353 350 350 343 335 335 341 336 335 353 317 305 253 166 170 170 158 168 169 172 173 169 173 172 166 163 160 161 164 165 180
303 324 302 295 290 295 353 282 64 19 353 348 354 350 348 348 346 351 353 350 349 342 337 332 339 342 338 348 333 330 331 179 169 162 165 168 170 172 175 171 174 173 166 163 161 166 168 172 180
335 324 231 239 255 237 16 317 67 9 335 333 344 344 344 345 344 350 352 354 351 345 342 336 341 348 351 348 339 329 333 285 174 172 176 168 167 171 176 175 175 172 170 165 168 168 175 169 175
1 356 356 269 311 330 23 288 57 351 334 335 336 338 340 347 344 349 354 354 352 349 345 340 342 357 345 337 346 326 353 325 184 177 175 162 169 173 176 175 177 175 174 170 168 168 177 176 178
1 2 26 301 344 317 303 338 70 333 324 349 342 336 342 347 347 349 352 352 351 350 343 341 348 348 340 348 344 332 352 322 274 186 174 172 171 174 174 178 180 177 174 170 170 168 174 179 177
347 28 6 278 239 267 16 141 172 359 358 350 348 347 345 343 346 348 350 354 351 351 344 342 345 349 340 350 341 331 337 337 321 246 183 177 172 176 177 179 179 179 176 171 170 171 174 180 179
22 8 247 252 333 319 321 290 314 357 350 345 346 345 341 339 342 347 348 352 350 350 342 340 348 354 338 342 352 331 332 307 351 312 210 184 176 176 177 177 179 174 172 172 175 174 182 181 185
269 49 4 282 300 319 315 360 106 342 342 334 330 337 336 337 338 343 346 349 350 349 349 340 354 353 344 342 344 338 333 338 354 330 356 327 175 174 176 181 178 177 177 176 175 181 182 185 184
297 299 284 305 1 310 266 280 158 321 320 312 329 329 334 335 334 341 346 347 350 350 351 341 350 352 345 338 341 342 343 342 348 338 355 346 309 190 180 182 183 180 180 180 182 182 180 187 187